(71514) = 1997 RF7 = 2000 CG55 = 1998 WU13

Discovered at Socorro on 2000-02-03 by LINEAR.

Orbit

Orbit type: Main Belt

Note: WebGL enabled browser required.

epoch2024-03-31.0
epoch JD2460400.5
perihelion date2022-09-25.76602
perihelion JD2459848.26602
argument of perihelion (°)64.78603
ascending node (°)26.04745
inclination (°)5.99031
eccentricity0.0830667
perihelion distance (AU)2.9741889
Tisserand w.r.t. Jupiter3.2
ΔV w.r.t. Earth (km/sec)10.8
semimajor axis (AU)3.2436262
mean anomaly (°)93.17100
mean daily motion (°/day)0.16871650
aphelion distance (AU)3.513
period (years)5.84
P-vector [x]-0.01237708
P-vector [y]0.87575586
P-vector [z]0.48259556
Q-vector [x]-0.99887275
Q-vector [y]-0.03294763
Q-vector [z]0.03417137
absolute magnitude14.28
phase slope0.15
uncertainty0
referenceMPEC 2024-F50
observations used1309
oppositions21
arc length (days)9688
first opposition used1997
last opposition used2024
residual rms (arc-secs)0.66
perturbers coarse indicatorM-v
perturbers precise indicator003Ek
first observation date used1997-09-09.0
last observation date used2024-03-19.0
computer nameMPCLINUX
JD of orbit computation2456909.146166
perihelion JD uncertainty (days)2.6772E-04
argument of perihelion uncertainty (°)6.3855E-05
ascending node uncertainty (°)4.8017E-05
inclination uncertainty (°)5.4269E-06
eccentricity uncertainty 4.0322E-08
perihelion distance uncertainty (AU)1.3019E-07
Minimum Orbit Intersection Distances (in AU)
for orbit epoch: 2460400.5, reference: E2024-G95
Mercury2.66436
Venus2.25759
Earth1.99756
Mars1.37799
Jupiter1.67168
Saturn6.09511
Uranus15.2392
Neptune26.6541

Observations

1325 total observations over interval: 1997 09 09.58542 – 2024 03 19.508082
These data are available for download (format description).

Date (UT) J2000 RA J2000 Dec Magn Location Ref
1997 09 09.58542 22 42 54.16 -15 06 22.5   360 – Kuma Kogen MPC 30533
1997 09 09.59948 22 42 53.49 -15 06 25.2 18.8 V 360 – Kuma Kogen MPC 30533
1997 09 09.60573 22 42 53.18 -15 06 26.5   360 – Kuma Kogen MPC 30533
1997 09 10.59514 22 42 08.70 -15 09 14.1 19.4 V 360 – Kuma Kogen MPC 30533
1997 09 10.60243 22 42 08.37 -15 09 15.1   360 – Kuma Kogen MPC 30533
1997 09 10.61319 22 42 07.88 -15 09 16.9   360 – Kuma Kogen MPC 30533
1998 11 18.26338 03 57 55.22 +25 29 31.2 18.1   704 – Lincoln Laboratory ETS, New Mexico MPS 9915
1998 11 18.30803 03 57 52.83 +25 29 28.1 18.3   704 – Lincoln Laboratory ETS, New Mexico MPS 9915
1998 11 18.35248 03 57 50.57 +25 29 26.1 19.5   704 – Lincoln Laboratory ETS, New Mexico MPS 9915
1998 11 18.39750 03 57 47.99 +25 29 22.5 18.8   704 – Lincoln Laboratory ETS, New Mexico MPS 9915
1998 11 21.25334 03 55 13.23 +25 27 11.9 18.1   704 – Lincoln Laboratory ETS, New Mexico MPS 3196
1998 11 21.29131 03 55 11.12 +25 27 10.9 17.8   704 – Lincoln Laboratory ETS, New Mexico MPS 3196
1998 11 21.32874 03 55 09.14 +25 27 08.0 18.2   704 – Lincoln Laboratory ETS, New Mexico MPS 3196
1998 11 21.36591 03 55 07.00 +25 27 06.8 19.1   704 – Lincoln Laboratory ETS, New Mexico MPS 3196
1998 11 21.40331 03 55 04.85 +25 27 04.1 18.9   704 – Lincoln Laboratory ETS, New Mexico MPS 3196
1998 11 24.18043 03 52 33.82 +25 24 21.5 17.3   704 – Lincoln Laboratory ETS, New Mexico MPS 3196
1998 11 24.22880 03 52 31.19 +25 24 18.0 18.3   704 – Lincoln Laboratory ETS, New Mexico MPS 3196
1998 11 24.27666 03 52 28.39 +25 24 15.1 19.3   704 – Lincoln Laboratory ETS, New Mexico MPS 3196
1998 11 24.32500 03 52 25.82 +25 24 12.9 18.2   704 – Lincoln Laboratory ETS, New Mexico MPS 3196
1998 12 11.29407 03 38 04.54 +24 59 11.4 18.2 R 699 – Lowell Observatory-LONEOS MPS 9915
1998 12 11.31699 03 38 03.43 +24 59 06.6   699 – Lowell Observatory-LONEOS MPS 9915
1998 12 11.33991 03 38 02.37 +24 59 06.1   699 – Lowell Observatory-LONEOS MPS 9915
2000 02 03.30322 10 31 44.31 +17 21 32.9 18.8   704 – Lincoln Laboratory ETS, New Mexico MPS 10386
2000 02 03.31762 10 31 43.74 +17 21 36.5 19.1   704 – Lincoln Laboratory ETS, New Mexico MPS 10386
2000 02 03.33187 10 31 43.14 +17 21 39.9 19.0   704 – Lincoln Laboratory ETS, New Mexico MPS 10386
2000 02 03.34647 10 31 42.52 +17 21 43.8 18.8   704 – Lincoln Laboratory ETS, New Mexico MPS 10386
2000 02 03.36076 10 31 41.89 +17 21 46.4 19.0   704 – Lincoln Laboratory ETS, New Mexico MPS 10386
2000 02 06.23856 10 29 41.11 +17 33 31.7 18.6   704 – Lincoln Laboratory ETS, New Mexico MPS 10386
2000 02 06.25353 10 29 40.43 +17 33 33.8 19.2   704 – Lincoln Laboratory ETS, New Mexico MPS 10386
2000 02 06.26842 10 29 39.76 +17 33 37.0 19.0   704 – Lincoln Laboratory ETS, New Mexico MPS 10386
2000 02 06.28336 10 29 39.03 +17 33 42.0 18.9   704 – Lincoln Laboratory ETS, New Mexico MPS 10386
2000 02 06.29827 10 29 38.40 +17 33 44.9 18.4   704 – Lincoln Laboratory ETS, New Mexico MPS 10386
2000 02 11.31428 10 25 53.12 +17 54 00.4 18.5   704 – Lincoln Laboratory ETS, New Mexico MPS 10386
2000 02 11.32866 10 25 52.42 +17 54 03.6 18.8   704 – Lincoln Laboratory ETS, New Mexico MPS 10386
2000 02 11.34306 10 25 51.78 +17 54 07.6 18.4   704 – Lincoln Laboratory ETS, New Mexico MPS 10386
2000 02 11.35744 10 25 50.98 +17 54 12.0 18.7   704 – Lincoln Laboratory ETS, New Mexico MPS 10386
2000 02 11.37187 10 25 50.28 +17 54 14.6 18.8   704 – Lincoln Laboratory ETS, New Mexico MPS 10386
2000 02 29.19535 10 11 30.89 +18 55 24.4 17.6   704 – Lincoln Laboratory ETS, New Mexico MPS 11046
2000 02 29.20898 10 11 30.27 +18 55 27.2 17.8   704 – Lincoln Laboratory ETS, New Mexico MPS 11046
2000 02 29.22234 10 11 29.65 +18 55 29.2 17.7   704 – Lincoln Laboratory ETS, New Mexico MPS 11046
2000 02 29.23569 10 11 28.98 +18 55 31.6 17.9   704 – Lincoln Laboratory ETS, New Mexico MPS 11046
2000 02 29.24992 10 11 28.29 +18 55 33.8 18.3   704 – Lincoln Laboratory ETS, New Mexico MPS 11046
2000 03 05.25824 10 07 37.40 +19 07 27.5 19.3   704 – Lincoln Laboratory ETS, New Mexico MPS 11046
2000 03 05.27253 10 07 36.81 +19 07 29.9 19.1   704 – Lincoln Laboratory ETS, New Mexico MPS 11046
2000 03 05.28599 10 07 36.17 +19 07 32.2 19.4   704 – Lincoln Laboratory ETS, New Mexico MPS 11046
2000 03 05.29961 10 07 35.52 +19 07 33.7 19.3   704 – Lincoln Laboratory ETS, New Mexico MPS 11046
2000 03 11.13222 10 03 28.15 +19 17 35.8 18.7 R 699 – Lowell Observatory-LONEOS MPS 11046
2000 03 11.15590 10 03 27.19 +19 17 37.8   699 – Lowell Observatory-LONEOS MPS 11046
2000 03 11.17955 10 03 26.12 +19 17 39.7   699 – Lowell Observatory-LONEOS MPS 11046
2000 03 11.20318 10 03 25.18 +19 17 41.7   699 – Lowell Observatory-LONEOS MPS 11046
2000 03 12.20584 10 02 45.50 +19 18 59.5 19.0   704 – Lincoln Laboratory ETS, New Mexico MPS 11046
2000 03 12.21899 10 02 44.99 +19 18 59.6 19.1   704 – Lincoln Laboratory ETS, New Mexico MPS 11046
2000 03 12.23339 10 02 44.39 +19 19 00.6 19.6   704 – Lincoln Laboratory ETS, New Mexico MPS 11046
2000 03 12.24659 10 02 43.91 +19 19 02.0 19.7   704 – Lincoln Laboratory ETS, New Mexico MPS 11046
2000 03 12.26012 10 02 43.34 +19 19 02.4 19.6   704 – Lincoln Laboratory ETS, New Mexico MPS 11046
2001 05 15.24054 14 17 57.38 -16 05 46.4 18.6 R 699 – Lowell Observatory-LONEOS MPS 30806
2001 05 15.26862 14 17 56.23 -16 05 40.1   699 – Lowell Observatory-LONEOS MPS 30806
2001 05 15.29675 14 17 54.90 -16 05 36.6   699 – Lowell Observatory-LONEOS MPS 30806
2001 05 15.32502 14 17 53.68 -16 05 32.6   699 – Lowell Observatory-LONEOS MPS 30806
2003 08 23.29382 23 46 30.71 -07 35 17.6 19.1   704 – Lincoln Laboratory ETS, New Mexico MPS 83251
2003 08 23.33156 23 46 29.39 -07 35 24.4 20.0   704 – Lincoln Laboratory ETS, New Mexico MPS 83251
2003 08 23.34432 23 46 29.04 -07 35 27.3 19.8   704 – Lincoln Laboratory ETS, New Mexico MPS 83251
2003 08 26.30952 23 44 43.60 -07 45 39.4 19.2   704 – Lincoln Laboratory ETS, New Mexico MPS 83251
2003 08 26.32216 23 44 43.08 -07 45 42.8 19.5   704 – Lincoln Laboratory ETS, New Mexico MPS 83251
2003 08 26.33459 23 44 42.66 -07 45 45.3 19.0   704 – Lincoln Laboratory ETS, New Mexico MPS 83251
2003 08 26.34806 23 44 42.09 -07 45 48.6 19.1   704 – Lincoln Laboratory ETS, New Mexico MPS 83251
2003 09 01.25212 23 40 51.67 -08 07 01.3 19.1   704 – Lincoln Laboratory ETS, New Mexico MPS 83959
2003 09 01.26391 23 40 51.20 -08 07 05.6 19.6   704 – Lincoln Laboratory ETS, New Mexico MPS 83959
2003 09 01.27575 23 40 50.70 -08 07 07.3 19.8   704 – Lincoln Laboratory ETS, New Mexico MPS 83959
2003 09 17.18568 23 29 07.41 -09 03 55.8 18.8 R 699 – Lowell Observatory-LONEOS MPS 85087
2003 09 17.20396 23 29 06.66 -09 03 59.1   699 – Lowell Observatory-LONEOS MPS 85087
2003 09 17.22231 23 29 05.74 -09 04 03.4   699 – Lowell Observatory-LONEOS MPS 85087
2003 09 17.24063 23 29 04.84 -09 04 06.4   699 – Lowell Observatory-LONEOS MPS 85087
2003 09 17.24294 23 29 04.67 -09 04 06.9 18.4   704 – Lincoln Laboratory ETS, New Mexico MPS 84476
2003 09 17.25521 23 29 04.16 -09 04 09.1 18.7   704 – Lincoln Laboratory ETS, New Mexico MPS 84476
2003 09 17.26819 23 29 03.52 -09 04 11.5 19.1   704 – Lincoln Laboratory ETS, New Mexico MPS 84476
2003 09 17.28043 23 29 02.88 -09 04 13.0 19.1   704 – Lincoln Laboratory ETS, New Mexico MPS 84476
2003 09 17.29250 23 29 02.42 -09 04 16.9 18.7   704 – Lincoln Laboratory ETS, New Mexico MPS 84476
2003 09 18.18212 23 28 22.15 -09 07 11.2 18.7 R 699 – Lowell Observatory-LONEOS MPS 85087
2003 09 18.20042 23 28 21.41 -09 07 15.2   699 – Lowell Observatory-LONEOS MPS 85087
2003 09 18.21881 23 28 20.38 -09 07 17.9   699 – Lowell Observatory-LONEOS MPS 85087
2003 09 18.23704 23 28 19.56 -09 07 22.2   699 – Lowell Observatory-LONEOS MPS 85087
2003 09 24.30309 23 23 47.48 -09 25 41.1 18.4   644 – Palomar Mountain/NEAT MPS 85087
2003 09 24.32601 23 23 46.44 -09 25 44.8 18.4   644 – Palomar Mountain/NEAT MPS 85087
2003 09 24.34774 23 23 45.47 -09 25 48.5 18.5   644 – Palomar Mountain/NEAT MPS 85087
2003 09 25.38462 23 23 00.21 -09 28 39.0 19.8   608 – Haleakala-AMOS MPS 85087
2003 09 25.39535 23 22 59.75 -09 28 41.0 20.0   608 – Haleakala-AMOS MPS 85087
2003 09 25.40607 23 22 59.22 -09 28 42.2 19.6   608 – Haleakala-AMOS MPS 85087
